Vertical_Velocity
3 2 2 -3 -7 -4 3 3 -9 2 -1 -2 -1 -3 -1 0 -1 -1 -1 -2 -2 -1
0 2 8 7 -0 -1 1 1 5 2 -6 2 -1 -3 -0 -2 -1 -0 -1 0 1 -3
9 -7 -10 -10 21 5 -6 -0 -1 -2 -0 2 -3 -2 1 -1 1 -1 -1 0 -0 -1
11 -3 10 1 3 14 2 -5 2 2 -0 -1 -1 0 -2 -3 3 -0 1 -2 -1 1
2 0 1 -4 -1 4 5 6 0 -2 -4 -1 -0 -0 -5 -1 2 0 1 1 -1 1
-0 -2 1 -0 -2 2 -4 -0 -2 -0 -2 -1 1 -0 -1 -1 -2 0 2 -0 0 1
-1 2 -1 2 1 2 0 -1 -2 -1 2 2 -1 -1 -2 0 2 0 -2 -0 -1 0
1 0 3 -3 -3 -2 -3 0 2 -3 -0 -3 1 -3 1 -0 1 -0 1 0 -1 1
-0 -0 0 2 0 -0 1 0 -2 1 -1 -2 -3 2 -3 2 1 1 1 -2 2 0
2 1 1 -1 0 1 1 0 -0 -0 -1 0 -3 -1 2 -2 1 2 -2 2 -2 -1
2 3 2 1 -0 0 -2 -2 -0 -0 -1 -1 1 -2 -2 1 -1 3 -1 4 2 -4
1 1 -1 -1 1 -0 -1 -1 -1 -1 -1 0 -1 -2 0 2 1 -0 0 0 3 -3
3 2 2 1 0 0 0 -0 -2 -2 -1 -1 -1 -0 -1 3 -2 0 1 3 -3 -1
-0 1 3 1 1 2 -1 -1 -3 -1 -1 1 -0 -1 1 2 -5 2 2 1 -1 -0
Height
1514 1516 1518 1520 1522 1524 1524 1524 1524 1527 1527 1528 1527 1527 1526 1525 1524 1522 1521 1521 1520 1521
1509 1511 1515 1514 1516 1517 1520 1520 1520 1520 1521 1521 1520 1521 1520 1519 1517 1516 1515 1514 1514 1514
1504 1508 1511 1513 1516 1510 1513 1516 1516 1514 1515 1514 1514 1514 1513 1513 1511 1510 1509 1509 1508 1507
1498 1501 1504 1507 1509 1508 1505 1509 1510 1509 1508 1508 1508 1507 1507 1507 1506 1504 1504 1503 1503 1503
1496 1498 1499 1501 1503 1504 1503 1503 1503 1503 1503 1503 1503 1501 1501 1502 1501 1500 1499 1498 1498 1499
1492 1494 1496 1497 1499 1500 1500 1499 1498 1498 1497 1497 1497 1496 1496 1496 1496 1496 1496 1495 1494 1495
1489 1490 1492 1493 1493 1494 1495 1493 1494 1492 1492 1491 1490 1491 1491 1492 1491 1491 1491 1492 1491 1491
1485 1487 1488 1488 1489 1489 1489 1489 1487 1487 1487 1485 1486 1485 1487 1487 1487 1486 1486 1487 1487 1489
1482 1483 1483 1484 1484 1484 1484 1482 1483 1482 1481 1480 1480 1480 1480 1482 1481 1481 1482 1482 1484 1484
1477 1477 1478 1479 1479 1479 1478 1478 1478 1477 1476 1475 1475 1475 1474 1476 1477 1478 1478 1479 1480 1482
1472 1473 1474 1475 1475 1474 1474 1473 1473 1472 1472 1472 1472 1471 1471 1472 1474 1475 1476 1477 1477 1480
1467 1468 1469 1469 1469 1469 1468 1468 1467 1468 1468 1468 1468 1468 1469 1469 1470 1472 1474 1475 1476 1477
1463 1464 1464 1464 1464 1464 1463 1463 1463 1464 1464 1465 1465 1466 1466 1468 1469 1472 1473 1473 1474 1476
1457 1458 1459 1459 1459 1459 1458 1458 1459 1460 1461 1461 1462 1463 1464 1466 1468 1470 1471 1471 1472 1473